Location: A�t �Alizem
(31.2076°N, 8.7872°W)
Time: 16:37:35
(UTC+00:00)

deb Explorer IX - Pass Details

Date: 29 June 2021
Orbit: 542 x 1233 km, 38.9° (Epoch: 22 July)

Event Time Altitude Azimuth Distance (km) Brightness Sun altitude
Rises 20:29:04 0° 234° (SW) 2,716 ? -9.2°
Reaches altitude 10° 20:31:20 10° 231° (SW) 1,798 ? -9.6°
Maximum altitude 20:35:19 62° 150° (SSE) 611 ? -10.3°
Drops below altitude 10° 20:39:25 10° 70° (ENE) 1,852 ? -11.0°
Sets 20:41:47 0° 67° (ENE) 2,807 ? -11.4°
